Theta_e
266 266 266 267 267 267 267 267 267 267 267 267 267 267 268 268 268 268 268 268 268 268 268 268 268 268 269 269 269 270 270 270 271 271 272 273 273 274 275 277 278 278 279 279 279 279 279 279 280 280 281 282 283 284 284 285 286 286 287 288 288 288 288 288 288 288 289 289 289 289 290 290 290 290 290 290 290 289 288 288 289 289 288 288 289
266 266 266 266 266 266 267 267 267 267 267 267 267 267 267 267 267 268 268 268 268 268 268 268 268 268 268 269 269 269 270 270 270 271 271 272 273 273 275 276 278 278 278 278 278 279 279 280 280 280 281 282 282 283 284 285 286 286 287 287 287 288 288 288 288 288 289 289 289 288 289 289 289 289 290 290 290 289 288 288 287 287 287 288 288
265 266 266 266 266 266 266 266 267 267 267 267 267 267 267 267 267 267 267 267 267 268 268 268 268 268 268 268 269 269 270 270 270 271 271 272 272 273 274 276 277 277 277 278 278 278 278 279 280 280 281 282 282 283 284 285 285 286 286 287 287 287 288 288 288 288 288 289 289 288 288 288 288 289 289 289 289 288 288 288 287 286 286 286 287
265 265 265 266 266 266 266 266 266 266 267 267 267 267 267 267 267 267 267 267 267 267 268 268 268 268 268 268 269 269 270 270 270 270 271 271 272 273 274 275 276 277 277 277 277 277 277 278 279 280 281 281 282 283 284 285 285 286 286 286 286 287 287 288 288 288 288 288 288 288 287 288 288 288 288 288 288 287 288 288 286 285 285 284 285
265 265 265 265 265 266 266 266 266 266 266 266 266 267 267 267 267 267 267 267 267 267 267 268 268 268 268 268 269 269 270 270 270 270 271 271 272 273 274 274 275 276 276 276 276 276 277 277 277 279 281 282 282 283 284 284 285 286 286 286 286 286 287 287 288 288 288 288 288 288 287 287 287 287 287 287 286 286 286 286 286 285 284 284 284
264 265 265 265 265 265 266 266 266 266 266 266 266 266 266 266 266 267 267 267 267 267 267 267 268 268 268 268 268 269 270 270 270 270 271 271 271 272 272 273 274 274 275 275 276 276 276 276 276 278 280 282 282 283 284 285 285 285 286 286 286 286 287 287 287 287 287 287 287 287 286 286 285 285 285 286 286 285 285 284 284 284 284 284 284
264 264 265 265 265 265 265 265 265 266 266 266 266 266 266 266 266 266 267 267 267 267 267 267 268 268 268 268 268 269 269 269 270 270 270 270 270 271 271 272 272 273 273 274 275 275 275 275 275 277 279 282 283 283 284 284 285 285 285 286 286 286 286 287 287 287 287 287 287 287 286 286 285 284 284 285 284 284 284 283 283 284 284 284 284
264 264 264 264 265 265 265 265 265 265 265 265 265 266 266 266 266 266 266 267 267 267 267 268 268 268 268 268 268 269 269 269 269 269 270 270 270 270 270 271 271 272 273 273 274 275 274 274 275 276 278 280 282 283 284 284 285 285 285 285 286 286 286 287 287 287 287 287 287 287 287 286 285 284 283 283 282 283 284 284 284 284 284 283 283
264 264 264 264 264 264 265 265 265 265 265 265 265 265 266 266 266 266 266 267 267 267 267 268 268 268 268 268 268 268 269 269 269 269 269 269 269 269 269 270 271 271 272 273 274 274 274 274 274 275 277 279 280 282 283 284 285 285 285 285 285 285 286 287 287 287 287 287 287 287 287 286 285 284 283 282 282 283 284 283 284 284 284 284 283
263 264 264 264 264 264 264 264 264 265 265 265 265 265 265 266 266 266 266 267 267 267 267 268 268 268 268 268 269 269 269 269 269 269 270 270 269 269 270 270 271 271 272 273 273 274 274 274 274 275 277 278 279 280 282 283 284 285 285 285 285 285 286 286 286 286 287 287 287 286 287 287 286 285 283 283 283 284 283 283 283 284 284 283 283
263 263 263 264 264 264 264 264 264 264 264 264 265 265 265 265 266 266 266 267 267 267 268 268 268 268 268 269 269 269 269 269 269 270 270 271 271 271 271 271 271 271 272 273 273 274 275 275 275 275 276 277 278 279 281 282 283 284 285 285 285 285 286 286 286 287 287 287 287 287 287 287 286 285 285 284 284 283 283 283 283 284 284 283 284
263 263 263 263 264 264 264 264 264 264 264 264 264 265 265 265 265 266 266 267 267 267 268 268 268 268 269 269 269 269 269 269 270 271 271 272 272 272 272 272 272 272 273 273 274 274 275 276 276 276 276 277 277 279 280 281 283 283 284 284 285 285 286 286 286 287 287 287 287 287 287 287 286 285 285 285 284 283 284 284 283 284 284 284 284
262 263 263 263 263 263 263 263 263 264 264 264 264 264 265 265 265 266 266 267 267 267 268 268 268 269 269 269 269 269 269 270 270 271 272 273 273 273 273 273 273 273 273 274 274 274 275 276 277 277 277 277 277 278 279 280 282 283 284 284 284 285 285 286 286 286 286 287 287 287 287 287 287 286 285 286 285 284 284 284 283 283 284 284 284
262 263 263 263 263 263 263 263 263 263 264 264 264 264 265 265 265 266 266 267 267 268 268 268 269 269 269 269 269 269 270 270 271 272 273 274 274 274 274 274 274 274 274 274 275 275 275 276 277 277 278 278 278 278 279 280 281 282 284 284 284 285 285 285 286 286 286 286 286 286 287 287 287 287 286 286 285 285 284 284 284 284 284 284 284
262 262 262 262 262 262 263 263 263 263 263 264 264 264 265 265 266 266 267 267 268 268 268 269 269 270 270 270 270 270 271 271 272 273 274 275 275 276 275 275 275 275 275 275 275 276 276 276 277 277 278 279 279 278 279 280 280 281 283 284 284 285 285 285 286 286 285 285 285 286 286 286 286 287 287 286 285 285 285 285 284 284 284 284 284
262 262 262 262 262 262 262 263 263 263 263 263 264 264 265 265 266 266 267 268 268 269 269 270 270 270 271 271 271 271 272 273 273 274 275 276 276 277 277 277 276 276 276 276 276 276 276 276 277 277 278 279 279 279 279 280 280 281 282 283 283 284 285 285 285 285 285 285 285 285 286 286 286 286 286 286 286 286 285 284 284 284 284 283 283
262 261 261 262 262 262 262 262 262 263 263 263 264 264 265 265 266 267 268 268 269 270 270 270 271 271 271 272 272 272 273 274 274 275 276 276 277 278 278 278 278 278 277 277 277 277 277 277 277 277 278 278 279 279 279 280 280 280 281 281 282 283 283 284 284 284 285 285 285 285 285 285 286 286 286 286 287 286 284 283 283 283 283 283 283
261 261 261 261 261 262 262 262 262 263 263 263 264 264 265 266 266 267 268 269 269 270 271 271 272 272 272 273 273 273 274 276 276 276 276 277 278 278 279 279 279 279 279 279 278 278 278 278 278 278 278 278 279 279 279 280 281 281 281 281 281 282 282 283 283 283 283 284 284 285 285 285 285 286 286 286 286 286 285 284 283 283 284 283 283
261 261 261 261 261 262 262 262 262 263 263 263 264 264 265 266 267 268 269 269 270 271 271 272 273 273 274 275 275 275 275 277 278 277 277 278 278 279 279 279 280 280 280 280 280 279 279 278 278 278 278 278 278 279 279 280 281 281 281 282 282 282 282 282 282 283 283 283 283 284 285 285 285 286 286 285 286 286 285 285 284 283 284 284 284
260 260 261 261 261 262 262 262 262 262 263 263 264 265 266 267 268 269 269 270 271 271 272 273 274 275 276 276 277 277 278 278 279 279 278 278 279 279 279 280 280 280 280 281 281 281 280 279 279 279 279 279 279 279 279 280 281 281 281 282 283 282 282 282 282 283 283 283 283 284 285 285 285 286 285 285 285 285 285 285 284 284 284 284 284
260 260 261 261 261 262 262 262 262 263 263 264 265 265 266 267 268 269 270 270 271 272 273 274 275 276 277 278 278 279 279 279 279 280 279 279 279 279 279 280 280 280 280 280 280 281 281 281 280 280 280 280 280 280 280 280 281 281 282 282 282 282 282 282 283 283 283 283 283 284 285 286 286 285 285 285 285 285 285 284 284 284 284 284 283
260 260 261 261 261 261 262 262 262 263 264 264 265 266 267 268 269 269 270 271 272 273 274 275 276 277 278 279 280 280 280 280 280 280 280 280 280 280 280 280 280 280 280 280 280 280 281 282 282 282 281 281 281 281 281 281 281 282 282 282 281 281 282 282 283 283 283 283 284 284 285 286 286 285 285 285 285 284 284 284 283 283 284 284 283
260 260 260 260 261 261 261 262 262 263 264 265 265 266 267 268 269 270 271 272 273 274 275 276 277 278 279 280 280 281 281 281 281 281 280 281 281 281 281 281 280 280 280 280 280 280 280 281 282 282 282 282 282 282 282 282 282 282 283 283 282 282 282 282 283 284 284 284 284 284 285 286 286 285 285 285 285 284 284 283 283 283 283 283 283
259 260 260 260 261 261 262 262 263 263 264 265 266 267 268 268 269 270 271 272 274 275 276 276 277 278 279 279 280 281 281 281 281 281 280 281 281 280 280 280 280 280 281 281 281 280 280 281 281 282 282 282 282 283 283 283 284 284 284 284 283 283 283 283 283 283 284 284 284 284 285 285 285 285 285 285 285 284 284 283 283 283 283 283 283
259 259 260 260 261 261 262 262 263 264 264 265 266 267 268 269 269 270 272 273 274 275 275 276 277 278 278 279 279 280 280 280 280 280 280 280 280 280 280 280 279 280 280 281 281 281 280 280 281 281 281 281 282 282 282 283 283 284 284 284 284 284 284 284 284 284 284 284 284 284 285 285 285 285 285 285 284 284 284 283 282 282 282 282 282
259 259 260 260 261 261 262 263 263 264 265 265 266 267 268 269 270 271 272 273 274 274 275 276 277 277 278 278 279 279 279 279 279 279 280 280 280 280 280 280 280 279 280 280 281 281 281 281 281 281 281 281 281 282 282 282 283 283 283 284 285 285 284 284 284 284 284 284 284 284 284 284 284 284 284 284 284 283 283 282 281 281 280 281 281
259 259 259 260 261 262 262 263 263 264 265 265 266 267 268 269 270 271 272 273 273 274 275 276 276 277 277 278 278 278 278 278 278 278 279 279 279 279 279 279 279 279 279 280 280 280 280 281 281 281 281 281 281 281 282 282 282 282 283 283 285 285 285 285 284 284 284 284 284 284 284 284 284 284 284 283 283 283 282 282 281 280 280 280 280
258 259 260 261 262 262 262 263 263 264 265 265 266 267 268 269 270 271 272 273 273 274 275 275 276 276 276 277 277 277 277 277 277 277 278 278 279 279 278 278 278 279 279 279 279 279 279 280 281 281 281 281 281 281 281 282 282 282 283 283 284 285 285 285 284 284 284 284 284 284 283 283 283 283 282 282 282 282 281 281 281 280 279 279 279
258 259 260 261 262 262 262 263 263 264 265 265 266 267 268 269 270 271 272 272 273 274 274 274 275 275 275 276 276 276 276 276 276 277 277 278 278 278 277 277 277 278 278 278 278 278 279 279 280 280 281 281 282 282 282 282 282 282 282 283 283 284 285 285 284 284 284 284 284 283 283 282 282 282 281 281 280 280 280 280 280 280 279 278 278
258 259 260 261 262 262 262 263 263 264 265 265 266 267 268 268 270 271 272 272 272 273 273 274 274 274 274 275 275 275 275 275 276 276 276 277 277 277 276 276 276 276 277 277 277 277 277 278 278 278 279 280 281 281 282 282 282 282 282 282 283 283 284 284 284 284 284 284 284 283 282 281 281 281 281 280 279 279 278 278 279 279 278 278 277
258 259 260 261 261 261 262 263 263 264 264 265 266 267 268 268 269 270 271 271 271 272 272 272 273 273 273 273 274 274 274 274 275 275 275 275 275 275 275 275 275 275 276 276 276 275 276 276 276 276 276 277 277 278 279 279 280 281 281 282 282 282 283 284 284 284 284 284 283 283 282 281 281 280 280 279 278 278 277 277 278 278 277 277 276
258 259 260 261 261 261 262 262 263 264 264 265 266 267 267 268 269 269 270 270 270 271 271 271 271 272 272 272 273 273 273 273 274 274 274 274 274 274 274 274 274 275 275 275 274 274 274 274 274 274 274 275 274 274 275 275 276 277 278 279 279 280 281 282 283 284 284 284 283 282 282 281 281 280 279 279 278 277 276 276 276 277 277 276 276
258 259 260 261 261 261 262 262 263 264 264 265 266 266 267 268 269 269 269 269 269 269 269 269 270 270 270 270 271 272 272 272 273 273 273 273 273 273 273 273 273 273 274 273 273 273 273 273 273 273 272 273 273 273 273 273 273 274 275 275 276 277 278 279 281 282 283 283 282 282 281 281 281 280 279 278 278 277 276 276 276 276 276 275 274
258 259 260 260 261 261 262 262 263 264 264 265 265 266 266 267 268 268 268 268 268 268 268 268 268 268 268 268 269 270 271 271 271 271 271 272 272 273 273 272 272 272 272 271 271 271 271 271 271 271 271 271 272 272 272 272 272 272 273 273 274 274 275 276 278 279 281 281 281 280 279 279 279 278 277 276 276 276 275 275 275 275 275 274 273
258 259 260 260 261 261 262 262 263 263 264 264 265 265 266 267 268 268 267 267 267 267 267 267 266 266 267 267 267 268 269 269 269 270 270 270 271 272 272 271 271 271 270 269 269 269 269 269 269 269 270 270 270 270 271 271 271 271 272 272 272 273 273 274 275 276 277 278 278 277 277 276 276 276 276 275 275 275 275 274 275 274 274 273 272
258 259 260 260 260 261 262 262 263 263 264 264 265 265 266 267 267 267 267 266 266 266 266 266 265 265 265 265 266 267 267 267 268 268 267 268 269 270 270 269 269 269 269 269 269 268 268 268 268 268 268 269 269 269 270 270 270 270 271 271 271 271 272 272 273 274 274 275 275 274 274 274 274 274 274 274 274 274 274 274 274 274 274 273 272
258 259 259 260 260 261 262 262 263 263 263 264 264 265 266 266 266 266 266 265 265 265 265 264 264 264 264 264 264 265 266 266 266 266 266 266 267 267 266 266 266 267 267 267 267 268 268 267 267 267 267 268 268 269 269 270 270 270 270 270 271 271 271 271 271 272 272 272 272 273 273 273 273 274 274 273 273 273 273 272 272 272 272 271 271
258 259 259 259 260 261 262 262 262 263 263 264 264 265 265 265 265 265 265 264 264 264 264 264 263 263 263 263 264 264 264 264 265 265 265 265 265 264 264 264 265 265 265 265 266 267 267 267 266 266 267 267 268 269 269 269 270 271 271 271 270 270 270 271 271 271 271 271 271 271 272 272 272 273 273 273 272 272 272 271 271 271 270 270 270
258 259 259 259 260 261 261 262 262 262 263 263 264 264 264 264 264 264 264 263 263 263 263 263 262 262 262 263 263 263 262 263 263 263 262 262 262 262 262 263 263 263 263 264 264 265 266 266 266 266 266 266 267 268 269 269 270 271 271 271 270 270 270 270 270 270 271 271 271 271 271 271 271 272 272 272 272 271 271 271 271 271 270 269 270
257 258 259 259 260 261 261 261 262 262 262 263 263 263 263 264 264 264 263 263 263 262 262 262 261 261 261 262 263 262 261 261 261 261 261 261 261 261 261 261 261 261 262 263 263 264 264 265 265 265 265 266 266 267 268 269 269 270 270 271 271 271 270 270 269 269 269 270 270 270 270 270 270 271 271 271 271 270 270 270 270 270 270 270 270
257 258 258 259 260 260 261 261 261 261 261 262 262 262 263 263 263 263 263 262 262 262 261 261 261 260 261 261 262 261 260 260 260 260 260 260 260 260 260 260 260 260 261 262 263 264 264 264 264 264 265 266 266 267 268 269 269 269 269 270 270 271 271 270 270 269 269 269 269 269 269 269 270 270 270 270 270 270 270 270 270 270 270 270 270
257 257 258 258 259 260 260 260 261 261 261 261 262 262 262 262 261 262 262 262 262 261 261 261 260 260 260 260 260 260 260 259 259 259 259 259 259 259 259 259 259 260 260 261 263 264 264 264 264 264 264 265 266 267 268 269 269 270 269 270 270 270 270 270 270 270 270 270 270 270 270 270 270 270 270 270 270 270 270 270 270 270 270 270 270
256 257 257 258 259 259 260 260 260 260 260 261 261 261 261 261 261 261 261 261 261 261 260 260 260 259 259 259 259 259 259 259 259 258 258 258 258 258 258 259 259 260 261 262 263 263 264 264 264 264 264 264 265 266 267 268 269 269 270 270 270 270 270 270 270 270 270 270 270 270 270 270 271 271 271 271 271 270 271 271 271 271 270 269 269
256 256 257 258 258 259 259 259 259 260 260 260 260 261 260 260 260 260 260 260 260 260 260 259 259 259 259 258 258 258 258 258 258 258 258 258 258 258 258 259 259 260 260 261 262 263 264 264 264 264 264 264 264 265 266 267 268 269 270 270 270 270 270 271 270 270 271 271 271 271 271 271 271 271 271 271 271 271 271 271 271 270 270 269 269
256 256 256 257 257 258 258 258 259 259 259 259 260 260 260 260 260 260 260 260 259 259 259 259 259 258 258 258 258 258 258 257 258 258 258 258 258 258 258 258 259 259 260 261 262 263 263 264 264 264 264 264 265 265 266 266 267 268 269 270 270 270 271 271 271 271 271 272 272 272 272 271 272 272 271 271 271 271 271 271 271 270 270 269 269
256 256 255 256 257 257 257 257 258 258 258 259 259 259 259 260 259 259 259 259 259 259 259 258 258 258 258 257 257 257 257 257 257 257 258 259 259 259 259 259 259 259 259 260 261 262 262 263 263 264 264 264 265 265 266 267 267 268 268 269 269 270 270 271 271 271 271 271 271 271 271 271 272 272 271 271 271 271 271 271 270 270 270 269 269
257 256 255 255 256 256 256 257 257 257 257 258 258 258 259 259 259 259 259 259 258 258 258 258 258 258 257 257 257 256 256 256 256 256 257 258 259 260 260 260 260 260 260 260 261 262 262 263 263 263 263 264 264 265 266 267 267 268 268 268 268 269 269 269 270 270 270 270 270 270 271 271 271 271 271 271 271 270 270 270 269 269 269 269 268
257 255 255 255 255 255 255 255 256 256 257 257 257 257 258 258 258 258 258 258 258 258 258 257 257 257 257 256 256 256 256 256 257 257 257 258 258 259 260 260 260 261 260 260 261 261 262 262 263 263 263 264 264 265 265 266 267 267 268 268 268 268 268 269 269 269 269 269 269 269 270 270 270 270 270 270 270 270 269 269 269 269 268 268 268
256 255 254 254 254 254 254 255 255 255 256 256 256 256 256 257 258 258 258 258 258 258 257 257 257 257 256 256 256 256 256 256 256 257 257 258 258 259 259 260 260 261 261 261 261 262 262 262 263 263 263 264 264 264 265 265 266 266 267 267 267 268 268 268 269 269 269 269 269 269 269 269 269 269 269 269 269 269 269 268 268 268 268 267 267
256 255 254 254 253 254 254 254 254 254 255 255 255 255 255 256 256 257 257 257 257 257 257 257 257 256 256 256 256 255 255 255 256 256 257 258 258 259 260 260 260 260 261 261 261 262 262 262 263 263 263 264 264 264 264 264 265 265 265 266 266 267 267 268 268 268 269 269 269 269 269 269 269 269 268 268 268 268 268 268 268 267 267 267 266
255 255 254 254 253 253 253 253 253 254 254 254 254 254 254 255 255 255 256 256 256 256 256 256 256 256 256 256 255 255 255 255 255 255 256 257 258 258 259 260 260 260 261 261 261 261 262 262 263 263 263 263 264 264 264 264 264 264 265 265 266 266 266 267 267 267 268 268 268 268 268 268 268 268 268 268 268 267 267 267 267 267 266 266 266
Wind_Speed
24 23 22 22 22 23 23 23 22 22 22 22 22 22 22 22 22 22 22 22 22 22 21 22 22 22 22 22 22 21 21 20 19 18 18 18 18 18 18 18 18 18 18 18 17 16 17 19 21 21 21 21 22 22 23 23 23 24 22 19 19 19 21 21 16 14 19 22 18 17 18 18 19 21 23 25 28 32 35 38 41 41 40 40 42
24 23 23 23 23 23 23 23 22 22 22 22 22 22 22 22 22 22 22 22 22 22 22 21 21 21 21 22 22 22 22 22 22 21 21 20 19 19 19 19 19 19 20 19 18 16 16 19 21 22 21 23 24 23 23 23 23 23 22 19 19 20 21 23 20 15 16 20 19 18 19 20 20 20 22 23 26 29 32 35 37 37 37 38 40
24 24 23 23 24 24 23 23 22 23 23 22 22 22 22 22 22 22 22 22 22 22 21 22 21 21 21 21 20 21 21 22 22 22 22 22 21 21 21 22 22 21 20 20 18 16 16 19 21 21 22 23 24 24 23 23 23 22 22 21 20 21 21 21 20 18 17 19 18 16 18 20 21 22 23 23 24 26 28 30 33 33 34 35 36
24 24 24 24 24 24 23 23 23 23 23 23 23 23 23 23 22 22 22 22 22 22 21 21 21 21 21 20 20 20 21 21 21 21 22 23 23 23 21 22 23 22 20 18 17 16 18 21 22 21 23 24 24 24 24 23 23 22 21 21 21 21 20 20 20 20 19 18 18 17 18 21 22 23 23 22 23 26 26 26 27 29 31 32 34
24 24 25 25 24 24 24 23 23 23 24 24 23 23 23 23 22 22 22 22 22 21 21 21 21 21 21 20 20 19 18 18 18 18 19 19 20 20 18 17 20 21 19 17 17 17 18 22 23 22 23 25 24 23 24 24 23 22 21 21 21 21 20 19 18 19 20 19 18 16 17 20 21 22 23 23 22 23 24 25 26 26 28 31 32
24 25 25 25 25 24 24 24 24 24 24 24 24 24 24 23 23 23 22 22 22 21 21 20 20 21 21 20 21 19 18 17 18 18 17 18 18 17 17 17 17 18 18 18 19 18 18 21 24 24 23 24 26 24 23 24 23 23 22 21 21 20 19 19 17 18 20 20 19 17 15 17 20 20 22 23 22 22 21 21 23 25 26 28 30
25 25 25 25 25 25 25 25 25 25 24 24 24 24 24 24 23 23 22 21 21 21 20 20 20 20 21 21 21 21 20 20 20 21 21 21 20 18 18 19 19 20 20 20 20 20 23 26 26 25 24 24 26 27 25 23 23 24 23 22 22 21 22 21 18 18 19 18 18 18 15 16 19 18 20 22 22 21 21 17 18 22 25 26 28
25 25 25 25 24 24 25 25 25 25 25 25 25 24 24 24 23 23 22 21 21 20 20 20 20 20 20 21 21 22 23 23 23 23 23 24 24 24 24 23 22 22 22 22 22 22 25 30 29 26 25 26 25 26 27 26 24 23 23 23 22 21 23 21 19 18 18 17 17 19 17 16 15 14 14 16 15 17 22 22 20 21 22 22 24
25 25 25 25 25 25 26 25 25 25 25 26 25 25 24 23 23 23 23 22 21 20 20 19 20 20 20 21 21 21 22 23 23 24 24 24 26 30 31 28 26 25 24 24 24 23 26 32 34 28 25 26 25 23 24 26 26 24 23 22 20 20 21 20 19 18 17 16 17 19 18 16 14 13 11 14 18 21 25 24 21 18 18 18 18
25 25 25 25 25 26 26 26 26 26 26 26 25 25 24 23 22 22 22 21 20 19 19 18 19 19 20 21 21 21 20 21 21 23 24 24 24 24 26 26 26 25 25 24 24 24 25 29 34 32 28 26 26 24 23 26 28 27 25 22 20 21 22 20 19 18 16 16 18 18 17 14 14 15 14 19 25 23 20 22 21 17 15 13 13
25 25 25 25 25 26 26 27 27 26 26 25 24 24 24 23 22 21 20 20 19 18 17 17 18 18 19 19 20 19 19 19 21 24 25 25 25 23 22 23 23 23 24 24 23 24 24 24 27 31 29 26 26 26 25 25 27 29 29 26 23 24 23 20 18 17 15 15 17 17 16 13 14 17 19 22 24 20 18 23 25 19 13 10 9
25 25 25 25 25 25 26 27 28 27 25 24 24 24 24 24 24 22 21 20 18 18 17 18 18 18 19 20 21 21 21 22 24 25 24 24 25 24 23 23 22 22 22 23 23 23 23 22 23 25 28 28 27 26 25 25 25 27 30 30 29 28 26 22 18 15 15 15 15 17 18 15 14 18 22 24 24 22 19 20 25 25 19 14 11
25 25 25 25 25 25 25 26 28 27 25 24 24 24 25 26 25 24 22 20 19 19 19 20 20 19 20 21 22 23 24 25 25 24 24 24 23 23 23 23 23 23 22 22 23 22 22 22 21 22 26 28 28 26 25 24 24 25 28 30 30 30 30 28 25 20 17 15 16 18 19 17 14 18 24 26 26 24 20 18 21 24 21 19 21
25 25 25 25 25 25 25 26 26 26 25 23 24 25 25 26 26 25 24 21 20 20 21 21 21 21 21 22 23 24 26 25 23 22 22 21 21 22 23 23 24 24 24 24 23 23 24 23 21 21 22 24 26 26 25 24 23 22 25 27 27 28 29 31 30 27 23 21 21 21 19 18 17 18 22 26 25 24 23 23 24 24 25 27 27
25 25 25 26 26 26 26 25 25 25 24 23 23 24 25 26 27 26 24 21 21 22 22 22 23 22 21 21 22 24 25 23 21 21 21 20 19 20 21 23 24 25 26 26 25 25 25 24 24 22 21 21 24 26 27 25 22 20 20 21 23 24 26 28 28 28 28 27 28 26 22 22 22 20 20 23 23 24 25 27 29 28 28 27 20
25 25 26 26 26 26 25 25 25 25 25 25 24 24 24 26 28 26 24 23 23 23 23 23 23 23 21 20 20 23 25 22 19 19 19 19 18 19 21 23 26 26 27 28 28 28 27 25 25 25 23 22 22 25 28 26 23 20 17 17 18 19 21 24 24 25 26 27 29 29 27 27 25 21 21 21 23 25 24 21 22 21 18 16 12
25 26 26 26 26 25 24 23 25 27 27 26 26 26 27 29 28 25 23 25 26 25 23 21 20 21 21 19 19 22 24 22 17 16 17 17 17 18 18 21 24 26 28 29 30 30 30 29 27 25 26 25 23 25 28 25 22 20 18 17 18 18 19 21 21 21 23 24 26 27 27 28 26 22 22 21 22 24 21 17 17 17 15 11 9
26 27 27 27 25 24 23 23 25 27 27 27 27 29 30 31 28 23 21 23 26 25 21 19 17 16 17 20 21 21 23 21 16 15 16 15 15 15 15 16 18 21 25 27 28 30 32 33 30 27 27 26 25 26 27 24 21 21 21 20 19 19 21 21 20 21 21 21 23 24 26 27 26 24 22 20 21 22 22 20 19 19 17 14 12
27 28 27 26 24 23 22 23 25 26 28 30 31 32 31 30 27 22 20 21 20 19 18 17 17 17 20 24 24 21 21 20 16 13 14 13 13 13 13 14 15 16 18 20 22 25 30 33 32 30 29 28 25 26 27 24 23 24 23 20 18 20 24 23 21 21 20 19 20 22 24 25 25 23 20 18 19 22 23 24 23 20 18 17 17
28 27 26 24 23 22 22 23 26 27 29 32 33 32 30 28 26 24 23 20 16 17 18 18 19 24 27 27 24 21 19 19 16 12 10 11 11 12 12 13 15 15 15 15 16 17 21 27 29 30 31 30 28 27 27 25 25 27 26 20 19 23 26 25 22 21 21 19 19 20 22 23 25 23 18 16 19 21 24 25 25 24 20 18 17
26 25 24 24 24 23 24 25 27 29 30 30 31 31 28 26 25 25 24 21 19 22 24 21 20 25 27 23 21 20 18 17 15 12 8 9 10 11 12 13 14 14 15 14 15 15 15 18 21 25 29 31 29 28 27 26 26 26 26 24 26 28 28 25 22 21 22 20 17 18 20 21 23 22 17 15 17 21 24 24 24 26 24 19 16
24 25 26 27 26 26 27 28 28 29 30 28 28 29 28 26 26 24 21 20 22 24 25 23 20 21 22 20 18 17 14 13 13 11 8 8 9 10 12 13 14 14 14 15 15 15 14 13 14 17 22 26 28 27 26 25 25 25 26 27 30 32 31 26 21 18 19 19 16 17 19 19 20 20 18 15 16 19 23 21 21 24 24 20 17
25 27 28 28 29 28 29 29 29 28 27 27 26 26 27 26 25 22 19 19 19 19 21 22 20 20 21 20 19 16 12 11 12 11 10 10 10 10 9 11 13 14 14 15 15 15 15 14 12 12 14 18 22 24 25 25 26 27 27 27 28 29 29 26 20 17 19 18 16 17 19 19 19 20 17 15 15 17 20 18 18 22 23 21 20
28 29 29 29 29 29 30 30 29 27 26 25 23 23 24 24 21 19 18 17 17 17 19 20 19 20 20 19 19 18 15 13 13 14 14 13 12 13 13 12 12 11 12 13 14 14 14 14 13 11 11 11 13 16 19 21 24 27 29 30 29 27 25 24 22 19 19 19 18 19 20 20 20 18 16 15 15 16 17 17 16 21 23 21 21
32 31 30 29 29 29 30 29 27 26 26 23 20 19 20 19 18 18 18 17 16 18 19 18 18 19 19 17 18 19 17 16 16 16 17 15 14 14 14 14 14 12 11 11 12 13 15 16 15 15 14 13 13 13 14 16 17 20 24 28 30 29 26 24 23 22 20 19 18 19 20 19 18 17 16 17 17 17 19 19 18 19 21 19 18
32 31 31 30 28 27 26 24 23 24 23 20 17 17 17 16 16 17 17 16 17 18 18 17 17 17 17 17 17 17 17 17 17 18 18 17 16 15 15 14 14 13 12 11 10 11 13 15 16 17 16 16 15 15 15 15 15 16 17 20 25 30 30 26 22 20 19 18 17 18 18 17 17 18 19 19 20 20 21 21 20 19 19 18 16
31 32 33 30 25 22 21 20 20 20 19 17 16 16 16 15 15 15 15 15 17 18 17 16 16 16 16 16 16 16 16 16 18 19 19 18 16 15 15 14 14 13 11 10 10 11 11 11 12 14 15 15 15 16 16 15 15 16 16 14 15 22 28 28 25 22 20 19 18 17 18 17 18 20 21 20 21 22 22 23 22 20 19 18 16
31 32 30 25 21 19 19 20 21 20 18 18 17 16 15 15 15 15 14 15 17 17 15 15 16 15 15 15 15 15 15 16 18 20 20 18 16 15 14 15 14 13 12 11 11 12 11 9 8 9 11 12 13 14 15 15 14 14 15 13 11 13 19 26 29 25 21 20 18 17 19 20 20 20 19 18 21 23 23 23 23 21 20 18 16
31 29 25 21 19 20 20 20 20 19 19 19 20 19 18 16 15 15 14 14 16 16 15 15 16 16 15 14 14 14 15 17 19 20 18 16 14 14 14 15 14 13 12 11 11 10 8 6 5 5 6 8 10 11 12 13 13 13 14 14 13 10 11 18 23 22 19 19 18 20 21 19 18 19 16 14 19 23 22 22 23 22 20 18 16
28 26 24 21 21 21 21 21 20 19 19 19 21 22 22 19 16 15 16 16 16 15 15 16 17 16 16 15 14 13 15 17 19 18 17 15 13 13 15 15 14 12 10 8 6 5 5 5 5 4 4 4 6 7 8 9 10 12 12 13 14 13 11 13 17 19 19 18 19 23 23 16 15 18 15 13 17 20 18 19 23 23 20 16 14
25 25 24 22 22 22 21 20 19 19 18 18 18 20 23 23 19 15 16 17 16 15 15 17 18 17 18 18 16 15 16 19 19 18 18 15 13 13 15 15 13 11 8 5 5 7 7 6 6 7 6 5 4 4 3 4 5 6 7 8 10 12 13 11 11 16 18 18 20 25 23 16 15 16 15 16 20 20 17 18 20 21 19 15 14
25 24 23 20 21 21 19 18 18 18 18 19 18 18 19 21 21 19 18 16 15 14 15 18 19 19 19 21 20 19 19 20 21 20 19 17 13 12 14 15 14 10 10 11 10 9 9 8 7 8 8 7 7 6 5 4 4 4 4 4 6 9 11 12 11 13 15 16 21 26 26 22 20 17 16 20 23 19 15 14 14 14 14 14 15
26 23 21 20 20 19 18 17 17 17 18 19 19 18 18 17 19 21 21 19 15 13 15 18 20 20 21 22 23 21 20 20 21 21 20 17 13 10 11 14 15 15 15 14 12 10 9 9 8 8 8 8 7 7 6 5 4 3 2 3 5 7 9 12 15 14 13 14 19 23 25 25 24 20 18 22 23 17 12 11 12 12 13 14 15
26 21 20 21 21 19 17 17 17 18 18 18 18 18 18 17 17 19 20 20 19 18 18 20 22 22 22 24 25 24 21 21 21 22 20 17 12 10 12 14 17 19 19 16 13 11 10 10 9 9 9 8 8 8 7 6 5 4 3 1 1 3 5 8 11 14 14 14 16 18 18 19 22 21 20 20 19 14 10 10 11 12 14 17 17
23 19 19 21 21 19 17 16 16 17 18 18 17 17 17 17 17 17 17 17 18 18 18 20 22 22 21 23 26 25 22 21 21 22 21 18 14 14 17 18 18 19 18 15 13 12 10 10 9 9 8 8 7 7 7 7 6 5 4 3 2 1 1 3 7 11 14 15 16 17 17 18 20 21 21 20 18 16 15 14 14 14 16 19 19
20 18 18 21 21 20 18 16 16 16 17 17 17 16 16 16 16 16 16 15 15 15 16 18 20 19 18 21 26 25 21 20 20 20 21 20 19 19 19 17 15 14 15 14 12 10 10 10 10 9 9 8 8 8 8 7 7 6 5 4 4 3 3 3 4 7 10 12 13 15 16 18 18 19 19 19 17 17 18 18 17 18 19 20 21
19 18 19 21 22 20 18 16 16 18 18 17 16 16 16 16 16 15 15 15 16 15 15 17 19 19 20 23 27 25 21 19 19 19 20 22 24 23 18 14 12 12 13 14 13 10 9 10 11 11 11 11 10 10 10 8 7 7 6 6 6 5 4 4 5 7 8 9 10 12 15 17 18 19 19 18 16 16 16 16 16 16 16 18 20
19 19 20 22 22 19 17 16 17 18 17 16 16 16 16 16 16 16 15 15 16 16 16 16 17 19 21 24 26 24 21 20 21 22 23 23 23 21 16 13 13 13 12 14 14 12 9 10 12 11 11 12 13 12 10 8 7 6 5 5 5 5 5 5 6 6 6 6 7 9 10 12 14 16 19 19 19 19 19 18 17 17 17 18 18
20 21 21 21 20 18 16 16 17 18 17 17 17 16 16 16 16 16 16 16 16 16 16 16 15 16 18 22 24 23 20 19 19 20 19 18 18 18 16 14 15 16 15 16 16 14 11 11 11 11 10 11 12 12 11 10 9 8 6 4 4 4 5 5 4 4 5 5 5 6 6 6 7 10 14 17 19 20 20 19 20 20 19 17 16
20 20 20 19 18 17 16 15 16 17 17 17 17 16 15 16 16 15 15 16 16 15 16 16 15 15 17 21 23 20 17 16 16 16 15 15 16 17 17 16 16 18 19 18 18 16 13 12 12 12 11 11 11 11 11 10 10 8 7 5 3 3 3 4 4 4 4 4 4 5 5 6 6 7 10 12 14 17 19 18 19 20 19 17 17
18 17 17 17 16 16 15 15 16 17 17 16 16 16 16 15 15 15 15 15 15 15 15 15 14 14 16 20 21 18 15 13 13 13 13 14 14 15 16 16 17 18 19 18 18 16 14 13 13 13 13 12 12 11 10 10 9 8 7 5 4 4 3 3 3 3 3 4 5 6 7 8 9 10 11 12 13 15 17 17 18 18 17 17 18
16 15 15 14 14 14 15 15 15 16 16 15 16 16 16 15 15 14 14 14 14 15 15 15 14 14 16 19 21 20 16 14 13 13 14 14 15 15 17 18 18 18 18 17 16 15 14 13 13 13 13 12 12 11 10 9 9 8 7 6 4 4 4 3 3 3 4 6 7 9 10 10 10 11 12 13 14 15 16 17 17 16 16 16 17
14 13 12 12 12 12 12 14 14 14 14 15 15 15 15 14 14 14 14 14 14 14 15 15 15 14 16 19 21 20 17 15 15 15 15 16 17 18 19 20 20 19 18 16 15 14 13 13 12 12 12 12 11 10 9 9 8 8 7 6 5 4 4 4 4 4 5 6 8 9 10 10 10 11 11 13 14 16 16 16 16 16 16 17 17
13 12 11 10 10 9 10 11 12 12 13 14 13 13 13 13 13 13 13 13 14 14 14 14 14 14 15 17 18 17 16 17 19 18 18 19 21 21 21 21 20 19 18 18 16 15 14 13 12 11 10 10 9 9 8 8 8 8 7 7 6 5 4 5 5 5 5 6 8 9 9 9 9 10 12 13 14 16 16 16 16 17 18 18 18
13 12 11 9 9 8 9 10 11 12 12 12 12 12 12 12 12 13 13 13 13 13 12 12 13 13 14 16 17 17 17 18 21 22 22 22 23 22 22 21 20 20 19 19 18 17 16 15 14 13 12 11 10 9 8 8 9 9 9 8 8 7 7 6 6 6 6 6 7 8 8 8 9 10 12 13 14 15 16 16 17 17 17 17 17
11 11 10 9 8 8 9 9 10 11 11 10 11 11 11 11 12 12 12 12 12 12 12 12 12 13 14 16 17 18 19 18 20 22 23 23 23 22 22 21 20 20 20 19 19 18 18 17 16 15 14 13 11 10 10 10 10 10 10 10 10 9 9 8 8 8 7 6 7 7 8 9 10 11 12 13 13 13 14 15 15 15 16 16 16
10 10 10 9 8 8 8 8 9 10 10 10 10 11 10 11 11 11 11 11 11 10 11 11 11 12 14 15 17 19 21 21 21 22 23 23 22 21 20 20 20 20 19 19 19 19 19 18 18 17 17 16 14 12 11 11 12 12 12 11 11 10 10 10 9 9 9 8 7 8 9 10 11 11 11 11 12 12 13 13 13 13 14 14 14
9 9 9 9 8 8 9 8 8 9 8 9 10 10 10 10 10 10 10 11 10 10 10 10 11 12 14 15 17 19 21 22 22 23 23 23 22 21 20 19 19 18 19 18 18 18 18 18 19 18 18 18 17 16 15 14 13 13 12 12 11 11 10 10 10 10 10 10 9 8 8 9 11 11 11 11 11 11 12 13 13 13 13 13 13
7 7 8 7 7 8 8 8 7 8 8 8 8 9 9 10 10 9 10 10 10 10 10 10 10 11 13 15 16 18 20 21 22 23 23 23 23 22 20 19 18 17 17 17 17 16 16 17 17 17 18 18 18 18 17 16 15 14 13 13 12 11 10 9 9 9 9 9 9 9 8 8 10 10 10 10 10 11 11 12 12 12 12 12 13
6 6 6 6 6 8 8 7 6 7 8 8 8 8 9 10 10 10 10 10 10 9 10 10 11 11 12 14 15 17 19 20 21 21 22 22 22 21 21 20 19 18 17 16 15 15 15 15 15 15 15 16 16 16 16 16 15 15 14 13 12 10 9 8 8 7 7 7 7 7 7 8 8 9 10 10 10 10 10 11 11 11 12 12 12
6 5 5 5 6 7 8 8 7 6 7 7 8 8 9 9 9 10 10 10 10 9 10 11 11 11 12 13 14 15 17 19 20 20 21 21 21 20 20 20 19 18 17 16 15 14 13 13 13 13 13 13 13 14 14 14 14 13 12 11 10 9 8 7 7 6 6 6 6 5 5 6 6 7 8 9 9 9 10 10 11 10 11 11 11
Wind_Direction
328 327 326 323 322 320 319 317 316 314 312 310 308 304 303 301 299 297 295 291 289 286 285 283 280 278 275 273 274 275 275 275 274 274 273 271 271 269 267 264 259 255 254 254 255 256 258 259 256 254 250 245 242 240 238 239 238 239 239 234 233 236 236 240 247 253 254 256 261 264 262 257 254 252 252 252 249 243 240 240 238 237 236 235 235
328 327 325 324 322 322 320 319 318 316 315 313 310 307 305 303 301 299 295 293 290 287 285 284 281 279 277 274 273 272 270 270 268 265 264 264 267 268 264 259 256 255 255 256 257 258 263 263 258 254 250 244 241 240 239 237 236 236 235 231 231 233 231 235 243 251 252 252 254 256 258 254 249 249 249 248 247 244 242 241 239 237 236 236 236
328 326 325 324 323 323 321 320 319 318 316 314 312 310 308 305 302 299 296 294 291 288 285 283 281 279 277 275 273 271 268 265 262 258 256 258 263 266 261 254 252 253 254 256 259 260 264 267 264 254 248 245 242 240 239 238 235 233 232 230 230 232 230 229 236 245 250 252 252 250 249 247 245 246 247 245 243 242 244 244 240 237 235 234 234
327 327 326 324 324 324 323 322 320 319 317 316 314 312 310 307 304 300 297 294 290 288 285 282 280 278 276 274 273 272 267 262 259 255 252 253 256 258 257 251 248 250 254 257 260 263 263 268 272 261 247 243 243 240 238 236 235 232 230 229 230 231 229 226 229 240 248 252 251 248 246 246 245 245 245 242 237 238 243 244 241 238 235 233 233
327 327 326 325 324 324 323 322 321 319 318 316 314 313 311 308 306 302 298 295 292 289 286 282 280 278 275 273 274 275 269 261 260 259 255 254 254 253 255 254 250 251 255 257 260 264 264 267 276 273 254 240 239 240 237 235 234 232 229 226 227 229 229 226 226 235 243 249 251 248 244 244 243 242 242 240 234 234 239 240 239 239 237 235 235
327 326 325 325 324 323 323 322 320 319 317 315 314 312 311 308 306 304 300 297 294 290 286 282 278 276 273 271 270 271 269 263 261 262 262 262 263 262 261 261 260 260 260 261 261 262 266 270 275 278 267 246 236 236 238 235 232 230 227 224 224 225 225 224 222 229 239 245 249 249 242 235 236 236 238 238 233 229 231 235 237 238 238 238 237
326 325 325 324 323 322 322 320 319 317 315 314 312 310 309 307 305 303 301 298 294 290 286 282 277 275 273 270 267 266 266 263 261 259 260 262 265 266 264 262 264 266 264 263 262 261 267 274 275 275 274 261 241 235 238 237 233 231 229 225 223 223 222 220 217 223 235 242 246 249 244 231 228 232 235 234 231 228 226 225 230 233 234 236 237
325 325 325 323 322 321 320 319 317 315 313 313 311 309 308 306 304 302 300 297 293 290 287 282 278 274 270 269 266 264 263 262 260 259 258 259 261 262 263 263 264 265 263 262 262 262 267 273 274 270 271 271 258 241 239 240 236 232 231 228 225 226 226 220 214 219 230 238 243 248 247 232 218 221 227 219 214 222 225 222 224 228 228 230 233
324 324 324 322 321 320 319 317 315 314 313 312 311 310 309 307 305 302 300 297 293 289 286 282 278 273 269 267 265 263 261 258 257 255 254 254 256 258 260 260 260 261 261 261 261 260 264 270 273 270 263 266 267 255 245 243 239 233 230 228 223 225 229 225 219 220 225 235 242 245 246 236 213 202 198 198 210 224 225 222 225 231 228 226 229
324 324 322 321 321 320 319 317 316 314 314 312 312 311 309 308 305 302 300 297 292 289 285 281 277 273 270 267 263 261 259 255 253 251 250 249 250 252 254 254 254 254 256 258 258 260 263 267 271 271 265 262 264 261 252 250 246 239 232 228 221 222 227 229 227 223 221 233 242 243 245 236 212 201 200 210 221 225 219 216 223 229 226 225 230
323 322 321 320 321 320 319 318 316 315 313 312 311 310 309 308 305 302 301 297 294 291 287 282 278 274 271 268 264 261 258 256 255 253 252 250 247 247 248 248 248 247 249 252 255 259 261 262 265 268 267 263 261 258 253 251 250 244 237 232 229 227 225 225 227 222 217 228 240 244 245 233 210 206 214 220 221 217 213 216 219 217 214 218 227
322 321 320 320 320 320 319 317 315 314 313 311 310 310 309 308 306 304 301 298 296 293 288 284 280 276 271 267 264 261 259 259 259 258 257 253 248 246 246 245 245 244 244 246 249 253 256 257 259 262 263 262 260 258 255 251 248 245 241 238 236 235 232 228 229 225 218 225 236 243 245 239 218 208 214 221 220 217 215 214 215 215 213 215 219
322 320 320 321 320 319 319 317 314 313 311 311 310 309 309 308 308 306 303 300 297 294 291 288 283 279 276 273 270 268 268 269 266 262 260 256 250 245 243 242 243 243 243 243 244 245 248 250 251 252 258 261 259 255 253 253 251 245 241 240 239 239 239 237 238 238 233 230 235 237 238 239 230 217 218 222 220 216 211 207 212 214 210 214 224
321 320 321 321 319 319 318 316 314 312 311 311 310 308 308 308 309 309 307 302 298 296 296 294 291 290 286 283 280 277 279 282 276 267 263 259 252 245 241 240 242 243 242 242 242 242 243 245 246 245 247 251 252 251 248 249 251 246 239 237 237 238 240 240 240 242 241 239 241 241 240 242 243 237 231 226 217 211 210 210 213 215 216 222 227
320 321 321 319 319 319 319 317 315 312 312 313 311 309 309 310 311 313 309 305 304 304 304 304 302 300 296 291 286 284 287 291 283 270 265 261 254 248 241 238 239 241 242 241 241 242 242 242 245 246 244 242 243 247 246 244 246 244 239 236 236 237 240 240 239 240 240 241 244 246 247 248 251 251 244 235 225 219 219 219 219 220 223 225 224
320 321 320 318 318 318 318 317 315 313 314 315 313 312 311 312 315 316 312 311 312 310 310 309 308 307 304 297 290 291 298 300 289 274 267 261 255 250 242 236 234 235 238 238 237 239 240 240 242 244 244 242 239 242 245 244 243 242 240 239 238 238 239 239 238 238 239 241 243 246 248 250 252 253 250 247 241 231 225 221 218 213 211 212 211
321 321 319 317 317 317 317 316 314 314 316 315 314 315 316 317 319 318 314 315 318 318 316 313 311 310 309 304 297 297 305 310 300 282 273 265 260 256 248 240 235 232 235 236 234 235 237 237 238 239 242 241 236 238 242 239 236 239 240 240 240 239 240 240 239 240 240 242 244 246 248 250 250 249 249 252 252 239 221 209 206 199 192 195 201
321 320 318 317 317 316 315 314 314 314 315 315 316 318 321 322 322 319 314 313 316 319 319 314 310 308 306 308 306 300 303 313 310 290 279 271 265 263 259 253 246 239 238 239 237 236 237 238 235 233 238 240 236 237 239 232 228 234 238 239 238 237 240 242 243 244 244 244 245 245 247 249 247 246 246 250 252 242 224 213 207 199 197 205 207
321 319 316 315 315 315 314 314 314 314 315 318 321 322 324 325 322 318 314 310 309 312 315 312 310 312 314 317 318 311 307 315 320 304 287 277 269 264 260 261 261 255 250 249 246 241 239 240 236 231 234 237 235 237 237 228 225 232 235 233 230 235 242 243 241 243 245 246 246 243 244 246 242 239 241 245 247 243 235 227 216 203 201 210 210
319 316 315 314 314 314 313 313 314 317 319 322 325 327 326 324 321 319 318 315 308 308 314 314 312 320 326 326 327 326 319 318 325 322 300 284 275 268 261 260 263 265 265 265 263 254 244 239 236 231 231 234 234 235 234 227 225 231 233 227 225 236 245 245 242 242 244 246 247 243 240 239 233 228 231 236 239 240 238 231 221 213 209 208 206
316 316 315 314 313 314 314 314 317 323 326 327 328 329 328 323 321 321 320 319 319 320 323 321 316 324 332 331 327 331 332 329 332 336 320 294 281 272 267 264 263 265 268 268 269 269 260 247 238 231 230 231 231 232 232 227 224 228 230 229 234 243 249 248 245 242 240 240 243 241 237 231 223 220 222 225 229 232 231 227 222 220 216 208 204
318 317 316 315 314 315 316 318 322 325 330 331 328 328 330 328 326 325 320 318 322 324 326 325 321 325 334 336 334 339 348 353 356 359 349 321 299 282 270 265 263 265 270 272 269 268 267 263 254 242 235 232 230 230 232 229 226 227 229 233 240 248 250 248 245 239 233 231 229 231 230 223 215 217 221 220 220 222 222 219 219 220 218 211 207
319 318 317 315 315 316 320 324 326 327 330 332 329 328 333 334 333 330 323 318 319 322 326 329 329 332 337 342 346 349 354 3 8 9 5 355 343 330 307 286 275 265 262 268 272 271 268 264 265 263 250 238 232 229 231 231 229 229 230 232 237 242 244 242 237 231 229 225 220 220 222 219 214 215 216 214 213 215 216 216 218 218 216 212 213
321 319 318 316 316 319 323 327 329 330 333 333 329 329 333 334 331 326 322 320 323 327 330 332 336 339 340 342 348 353 357 1 4 3 1 358 353 349 345 336 321 298 276 269 269 271 271 264 261 264 262 253 243 237 236 236 234 232 231 231 232 233 233 232 229 226 224 221 216 216 216 214 213 212 209 206 206 208 211 213 215 214 212 212 215
321 320 319 317 317 320 324 327 331 334 335 331 322 319 323 324 322 320 320 326 331 333 333 336 339 340 340 342 348 351 354 357 357 357 356 352 344 341 340 339 336 326 310 290 275 269 268 264 261 261 261 262 260 255 254 254 250 244 238 234 231 227 226 226 224 221 218 214 209 210 210 208 207 207 206 205 204 203 204 204 205 207 208 209 211
320 320 320 319 318 318 320 322 326 329 332 327 319 316 318 318 317 317 322 333 337 332 332 338 342 340 338 341 346 348 349 352 352 351 350 346 341 340 337 333 331 329 321 309 297 287 277 267 261 258 258 259 257 253 255 257 257 259 256 247 235 227 225 223 217 210 209 207 203 205 208 205 202 202 202 201 202 203 204 202 198 197 200 203 202
321 321 321 320 319 318 318 318 319 321 323 322 320 320 321 322 321 321 328 339 336 329 331 339 342 340 338 340 345 346 347 350 351 349 346 342 338 339 338 334 330 327 321 315 310 307 300 284 268 257 253 253 250 248 251 252 252 254 256 256 244 230 224 219 211 205 203 204 206 207 205 202 197 195 195 194 196 201 203 201 196 192 193 197 194
322 321 320 319 319 320 320 320 321 320 320 319 319 318 319 323 324 325 333 340 333 327 334 342 342 342 342 342 345 346 347 350 350 346 341 338 339 341 341 339 332 325 320 318 312 308 307 300 281 260 250 246 243 243 245 245 246 245 242 242 246 239 223 212 209 207 203 203 204 199 193 192 190 188 188 189 192 195 197 198 196 193 190 189 186
325 323 322 322 321 322 322 322 322 321 320 321 321 321 323 325 325 327 336 342 337 337 345 349 347 349 349 346 346 348 348 348 346 343 340 341 346 349 348 344 338 330 322 316 311 310 313 314 304 277 256 244 239 239 239 236 236 237 235 233 238 247 230 208 201 199 199 198 195 188 183 183 184 184 182 181 187 190 191 192 194 192 189 188 187
327 326 327 326 325 326 324 323 324 323 323 324 324 326 331 333 333 336 341 342 343 349 356 355 356 360 359 354 352 353 351 348 346 346 348 350 354 359 359 355 350 344 336 325 323 335 343 343 346 342 314 271 251 247 244 240 236 233 233 232 230 237 242 222 201 194 197 196 190 187 185 181 181 185 183 177 181 184 184 187 191 189 185 183 186
328 328 329 327 326 325 323 321 322 322 323 325 325 327 331 334 336 341 344 343 345 352 359 1 3 7 7 2 358 357 356 356 355 356 358 0 4 8 9 8 5 3 7 21 34 28 17 6 1 360 357 356 353 336 314 301 277 253 246 241 230 229 237 236 211 195 196 196 191 190 190 186 182 186 186 180 178 178 178 183 187 186 184 182 183
328 326 327 326 325 324 322 320 321 323 325 328 329 330 330 330 332 337 342 345 346 350 359 3 5 7 10 8 5 2 1 0 0 1 2 5 10 15 20 21 24 34 50 56 51 36 21 14 9 5 5 8 7 4 3 359 339 303 280 270 247 231 229 231 225 209 200 196 194 194 194 192 189 187 186 182 179 173 171 176 177 175 178 182 184
334 326 325 327 326 325 322 322 323 325 327 329 330 330 330 330 332 333 336 340 345 351 0 5 5 6 7 8 7 6 3 3 5 6 7 11 17 27 34 33 34 43 52 50 43 31 19 14 10 8 8 7 2 1 4 9 3 342 307 270 252 241 231 227 225 220 208 197 194 195 197 196 193 188 182 181 180 173 164 166 168 166 169 173 177
340 329 326 328 327 325 324 325 324 325 328 329 329 328 328 331 336 336 335 339 344 349 355 1 5 5 3 3 4 5 5 7 9 9 12 20 32 48 53 48 43 44 46 42 33 25 18 13 10 7 4 2 2 4 4 3 6 10 13 4 245 237 229 218 212 207 200 191 187 188 189 189 187 183 177 177 178 173 159 159 164 165 167 170 169
343 333 331 332 330 327 326 326 326 327 329 329 329 328 328 332 339 342 341 341 342 342 345 351 357 0 1 0 0 1 4 8 11 12 18 27 40 53 55 48 39 34 33 30 25 20 14 9 7 5 3 1 3 7 6 3 4 8 13 26 41 61 133 172 183 186 185 183 181 181 180 179 179 179 176 174 175 172 167 167 171 169 169 170 169
344 337 337 337 334 331 328 326 327 329 328 328 329 331 333 339 342 342 343 344 342 340 340 342 346 353 359 0 360 3 8 10 12 18 25 32 43 52 50 40 28 22 20 18 16 14 11 10 9 7 6 7 10 15 17 16 14 15 20 31 37 44 64 100 141 159 165 169 172 175 176 176 177 177 172 168 170 172 171 170 171 171 171 171 170
344 340 341 340 337 333 330 328 328 329 328 330 334 337 341 346 346 345 346 346 344 342 343 344 346 353 359 360 360 4 11 18 26 33 36 39 45 48 43 30 22 21 17 13 9 4 5 11 13 13 12 12 15 21 22 22 21 22 27 35 40 47 64 88 115 130 138 146 154 161 167 171 174 175 171 163 161 163 163 160 159 160 164 167 165
347 350 351 347 342 337 334 333 333 334 335 337 341 344 347 349 351 352 351 349 347 346 345 348 353 358 359 357 356 358 7 20 29 32 31 33 37 36 27 20 22 21 15 13 12 7 2 6 11 13 13 14 17 19 18 16 16 16 19 27 37 48 64 85 104 111 110 117 132 145 154 160 165 169 170 166 162 162 161 161 160 158 158 162 163
349 358 1 357 348 342 340 340 338 340 343 344 345 348 350 351 353 355 354 353 353 352 350 352 357 0 359 358 357 358 4 13 18 16 14 16 20 20 16 17 20 19 17 19 18 13 3 360 4 6 6 10 15 18 18 15 13 11 11 20 32 42 49 57 68 79 86 100 114 124 131 137 146 157 162 163 163 163 162 164 167 166 162 162 164
347 355 1 359 351 345 345 346 345 346 347 347 348 350 351 351 352 354 355 356 355 354 353 354 356 357 360 3 4 4 6 7 6 5 5 6 9 12 13 13 15 17 18 19 21 18 8 1 2 6 9 12 18 21 23 22 17 12 15 28 43 48 50 54 59 65 76 91 99 107 118 124 126 137 148 154 159 162 162 163 167 168 165 163 164
348 352 355 354 351 349 351 351 350 350 349 348 350 352 352 352 352 351 354 357 357 354 353 352 350 352 359 7 11 14 13 8 2 1 3 4 4 7 10 12 14 17 18 18 20 21 17 11 11 14 16 20 25 27 29 32 29 22 18 27 47 60 61 66 81 90 97 105 115 125 135 140 140 144 150 153 155 160 162 161 162 164 164 164 164
355 353 351 351 351 354 355 353 351 351 352 353 355 356 355 355 354 353 355 358 357 355 353 350 347 348 355 7 20 27 26 16 9 5 4 4 5 9 14 18 20 21 21 20 20 22 22 20 18 15 15 19 24 28 34 41 43 38 27 23 35 59 70 73 89 113 126 135 141 145 147 150 152 153 156 158 159 160 160 160 161 162 163 163 164
0 353 348 348 351 355 355 352 350 352 354 354 354 355 355 356 356 356 357 357 358 358 355 351 348 346 349 3 21 31 31 22 15 9 5 6 11 15 19 22 24 26 27 27 26 27 27 26 23 19 18 18 20 24 32 41 50 54 49 39 35 51 74 87 97 116 131 139 143 147 149 151 155 157 158 159 161 160 160 161 162 162 161 161 162
4 355 347 346 350 354 355 354 353 352 351 351 351 352 354 356 357 357 357 357 358 359 356 352 350 348 347 354 6 16 21 23 24 20 15 15 18 19 21 23 25 28 31 31 30 31 32 31 29 26 25 25 25 28 36 45 53 63 68 66 61 62 75 92 101 112 126 135 141 145 147 150 152 154 155 156 158 159 159 160 160 159 160 161 161
8 1 352 347 350 355 357 357 355 351 350 351 352 352 353 356 358 358 357 356 355 356 357 355 353 351 351 354 359 2 7 17 24 27 25 24 23 22 23 25 26 28 32 33 34 34 36 35 34 33 33 34 34 36 43 54 62 69 73 76 77 78 82 91 99 108 119 131 139 141 143 145 149 150 151 154 156 157 157 158 160 160 162 163 164
12 8 358 350 347 350 354 355 355 354 353 353 353 352 352 353 355 357 357 357 354 352 354 356 354 353 354 357 2 5 6 8 15 22 26 27 27 26 26 27 29 31 33 36 38 40 41 42 42 42 40 39 40 43 50 62 70 75 77 80 83 87 90 93 99 105 111 121 131 135 135 137 142 145 147 150 154 156 156 158 161 163 164 167 169
13 12 4 355 347 347 352 356 354 353 353 352 352 352 351 350 350 351 352 353 353 352 352 353 353 354 355 357 3 10 13 13 13 16 21 25 28 29 29 29 31 33 36 37 40 44 45 47 49 50 49 48 49 52 57 66 74 78 80 83 86 88 92 97 102 106 111 114 117 123 129 133 136 141 144 147 152 157 159 160 163 166 169 172 175
11 10 5 1 353 348 352 356 355 353 352 349 348 349 349 347 348 348 348 348 350 350 351 351 350 351 354 357 2 9 14 16 16 17 19 22 24 28 30 31 31 33 35 37 40 44 47 49 51 54 55 55 56 57 59 64 70 74 77 81 83 84 88 94 100 106 113 115 114 115 124 132 135 139 143 147 153 159 163 164 167 171 174 177 179
3 5 1 357 352 350 354 355 352 351 350 346 343 345 346 345 344 345 345 345 345 345 346 347 349 349 350 353 358 4 10 13 15 16 18 20 21 24 26 29 31 33 33 34 37 41 45 48 50 54 57 58 60 60 60 62 65 68 70 72 74 76 81 89 97 105 111 116 118 120 125 133 138 141 143 148 155 162 167 170 172 173 176 180 182
349 355 356 352 348 352 359 360 354 351 351 347 341 340 343 342 341 341 341 341 342 343 342 342 342 343 345 348 353 358 4 7 10 12 14 17 20 21 23 24 27 29 31 32 34 36 38 42 46 49 53 56 60 62 62 60 60 61 63 64 67 71 76 82 91 100 106 112 119 126 133 144 152 154 153 156 161 166 170 173 175 176 179 183 185
330 339 349 350 348 354 1 1 356 351 350 347 341 339 338 338 338 337 337 337 337 338 339 339 338 338 340 343 346 351 358 3 6 7 9 12 15 19 21 22 23 23 25 27 29 31 33 35 37 40 43 47 52 57 61 61 59 58 58 59 61 66 72 76 84 94 101 107 116 125 137 154 166 169 169 170 173 175 176 178 180 181 184 188 190